           3 12  00 51.75  +02 05.6   0.997  1.726    22.5 /  35  14.9  132  .65

           4 12  00 52.62  +02 23.9   1.006  1.728    22.7 /  36  14.9  143  .55

           5 12  00 53.52  +02 42.2   1.014  1.729    23.0 /  37  14.9  156  .45

NAKANO

         **** Don't distribute anyone except personal use only ****

                (C) Copyright 2004 OAA/ComputingSection

write mail from CFAD0::NAKANO on 2004-11-10 04:11:54(JST).

 

    P/2004 T1 (LINEAR-NEAT)                                               

T 2004 Nov. 7.80212 TT                                  Nakano

q   1.7095126            (2000.0)            P               Q

n   0.15229357     Peri.  336.54400     +0.87717140     -0.45622749

a   3.4728151      Node    51.45799     +0.46528524     +0.73050364

e   0.5077444      Incl.   11.03838     +0.11865909     +0.50815442

P   6.47 (+/- 0.12 day)

From 250 observations 2004 Sept. 21-Oct. 31.



NAKANO

         **** Don't distribute anyone except personal use only ****

                (C) Copyright 2004 OAA/ComputingSection

write mail from CFAD0::NAKANO on 2004-11-03 02:43:59(JST).

 

◎P/2004 T1の軌道と予報位置です



 上尾の門田健一氏から,10月6日の観測が報告されました.氏の CCD全光度は

14.5等でした.



    P/2004 S1 (LINEAR-NEAT)                                               

T 2004 Nov. 6.27276 TT                                  Nakano

q   1.7138771            (2000.0)            P               Q

n   0.15278350     Peri.  335.46786     +0.88403501     -0.44277844

a   3.4653870      Node    51.65548     +0.45417343     +0.73795518

e   0.5054298      Incl.   11.00848     +0.11049255     +0.50928323

P   6.45 (+/-11.19 day)

From 49 observations 2004 Sept. 21-Oct. 6.

 

Date/        TT  R.A.(2000) Decl.     Delta   r     Daily motion  Mag.  Moon Age

              h    h  m       。  ,                      ,  / PA 。  m1      。

2004 Oct.  5 14  00 56.82  -12 13.0   0.759  1.739    12.4 / 304  14.3   87  .58

           6 14  00 56.12  -12 06.1   0.758  1.738    12.6 / 305  14.3   98  .49

           7 14  00 55.42  -11 58.9   0.757  1.736    12.8 / 306  14.3  110  .39

           8 14  00 54.71  -11 51.4   0.757  1.735    13.0 / 307  14.3  122  .30

           9 14  00 54.00  -11 43.5   0.757  1.733    13.2 / 309  14.3  133  .21

          10 14  00 53.30  -11 35.3   0.756  1.732    13.4 / 310  14.3  145  .14

          11 14  00 52.60  -11 26.7   0.756  1.731    13.6 / 311  14.3  157  .07

          12 14  00 51.90  -11 17.7   0.757  1.729    13.7 / 313  14.3  165  .03

          13 14  00 51.21  -11 08.4   0.757  1.728    13.9 / 314  14.3  165  .00

          14 14  00 50.54  -10 58.7   0.758  1.727    14.0 / 316  14.3  155  .00

          15 14  00 49.87  -10 48.7   0.758  1.726    14.1 / 317  14.3  143  .03

          16 14  00 49.22  -10 38.4   0.759  1.725    14.3 / 319  14.3  129  .08

          17 14  00 48.58  -10 27.7   0.761  1.724    14.4 / 320  14.3  115  .15

          18 14  00 47.95  -10 16.7   0.762  1.723    14.4 / 322  14.3  101  .24

          19 14  00 47.35  -10 05.3   0.764  1.722    14.5 / 324  14.3   87  .35

          20 14  00 46.77  -09 53.6   0.765  1.721    14.6 / 325  14.3   73  .46

          21 14  00 46.20  -09 41.6   0.767  1.720    14.7 / 327  14.3   59  .58

          22 14  00 45.66  -09 29.2   0.769  1.719    14.8 / 329  14.3   46  .68

          23 14  00 45.15  -09 16.6   0.772  1.719    14.9 / 331  14.3   32  .78

          24 14  00 44.65  -09 03.6   0.774  1.718    14.9 / 332  14.3   20  .87

          25 14  00 44.19  -08 50.4   0.777  1.717    15.0 / 334  14.3   11  .93

          26 14  00 43.75  -08 36.9   0.780  1.717    15.1 / 336  14.3   14  .97

          27 14  00 43.34  -08 23.1   0.783  1.716    15.2 / 338  14.3   24 1.00

          28 14  00 42.95  -08 09.0   0.786  1.716    15.2 / 340  14.3   36 1.00

          29 14  00 42.60  -07 54.7   0.789  1.715    15.3 / 342  14.3   48  .98

          30 14  00 42.28  -07 40.2   0.793  1.715    15.4 / 344  14.3   60  .94

          31 14  00 41.99  -07 25.4   0.797  1.715    15.5 / 346  14.3   72  .89

     Nov.  1 14  00 41.73  -07 10.4   0.801  1.714    15.6 / 348  14.4   84  .82

NAKANO

         **** Don't distribute anyone except personal use only ****

                (C) Copyright 2004 OAA/ComputingSection

write mail from CFAD0::NAKANO on 2004-10-07 06:19:19(JST).

 



戻ります。